AO-07 1 07530U 74089B 26165.25919906 -.00000031 00000-0 98943-4 0 9996 2 07530 101.9901 178.4753 0012540 135.5580 235.9820 12.53698067360153 UO-11 1 14781U 84021B 26165.20095834 .00001160 00000-0 12366-3 0 9996 2 14781 97.8057 130.8090 0007353 182.6210 177.4971 14.90776632256686 LO-19 1 20442U 90005G 26164.97260120 .00000110 00000-0 56016-4 0 9996 2 20442 98.8851 186.6896 0010942 210.9813 149.0727 14.34122315901935 AO-27 1 22825U 93061C 26165.20292012 .00000088 00000-0 50393-4 0 9996 2 22825 98.6880 232.6175 0009510 107.4097 252.8126 14.30941512706570 FO-29 1 24278U 96046B 26165.13192875 .00000020 00000-0 52658-4 0 9996 2 24278 98.5241 14.4226 0350867 104.3391 259.6965 13.53274148472758 GO-32 1 25397U 98043D 26164.97369743 .00000055 00000-0 43938-4 0 9998 2 25397 99.0066 157.6512 0000887 169.9985 190.1211 14.24427891450876 ISS 1 25544U 98067A 26165.09325831 .00008623 00000-0 16324-3 0 9999 2 25544 51.6335 315.4063 0004936 183.6835 176.4118 15.49219019571274 NO-44 1 26931U 01043C 26165.29565329 .00000096 00000-0 66841-4 0 9994 2 26931 67.0507 251.7506 0006072 264.5496 95.4913 14.31955183290030 SO-50 1 27607U 02058C 26165.25570183 .00000931 00000-0 12707-3 0 9991 2 27607 64.5509 138.0554 0075327 263.0161 96.2373 14.83041207264026 CO-55 1 27844U 03031E 26165.01650923 .00000269 00000-0 13536-3 0 9996 2 27844 98.6736 173.6152 0009316 187.2201 172.8845 14.24333986191224 RS-22 1 27939U 03042A 26165.29524249 .00001006 00000-0 16324-3 0 9992 2 27939 98.3466 349.5726 0009986 280.2575 157.7014 14.73462884215128 CO-65 1 32785U 08021C 26165.19938055 .00004778 00000-0 30257-3 0 9992 2 32785 97.8270 146.5558 0010151 48.5281 311.6817 15.09428490984741 CO-66 1 32791U 08021J 26164.93655222 .00018728 00000-0 59582-3 0 9994 2 32791 97.7509 162.6789 0001549 14.7739 345.3547 15.32650243986791 RS-30 1 32953U 08025A 26165.28173090 .00000120 00000-0 79345-3 0 9991 2 32953 82.5044 357.2484 0018975 320.4859 39.4837 12.43179589819338 SRMSAT 1 37841U 11058D 26165.10596875 .00000361 00000-0 51961-4 0 9995 2 37841 19.9719 78.1172 0011859 169.7435 229.6321 14.11574987757388 ZACUBE-1 1 39417U 13066B 26165.14115578 .00003529 00000-0 27550-3 0 9993 2 39417 97.8083 127.4617 0040472 258.3287 101.3393 15.01173415680272 Delfi-N3xt 1 39428U 13066N 26165.30000046 .00004660 00000-0 40874-3 0 9997 2 39428 97.8343 85.6146 0073490 215.4841 144.1479 14.95054935674192 GOMX-1 1 39430U 13066Q 26165.25794256 .00001978 00000-0 30067-3 0 9999 2 39430 97.6485 5.9059 0130191 86.8493 274.7601 14.69450522669489 LO-74 1 39440U 13066AA 26165.11577810 .00004533 00000-0 41941-3 0 9993 2 39440 97.8903 114.0809 0058614 38.9303 321.6115 14.93738647676539 AO-73 1 39444U 13066AE 26164.87461990 .00007372 00000-0 45803-3 0 9995 2 39444 97.8267 136.2511 0035377 212.6416 147.2626 15.09452478679163 DTUSAT-2 1 40030U 14033W 26165.26575400 .00007134 00000-0 38597-3 0 9997 2 40030 98.0858 162.8073 0006416 237.2911 122.7702 15.14985369652247 LILACSAT-2 1 40908U 15049K 26165.17625778 .00017413 00000-0 29746-3 0 9990 2 40908 97.4649 201.9032 0005354 259.3379 100.7270 15.51356675595284 Horyu-4 1 41340U 16012D 26165.18331445 .00430944 66472-4 11344-2 0 9999 2 41340 30.9846 101.0543 0004612 251.9494 108.0665 15.93563943570337 Lapan A3 1 41603U 16040E 26165.25401409 .00003268 00000-0 10443-3 0 9994 2 41603 97.1482 161.4960 0011232 35.5821 324.6168 15.33087599554360 CAS-2T 1 41847U 16066G 26165.19312685 .00001608 00000-0 23241-3 0 9998 2 41847 98.3820 240.9636 0342703 138.5317 224.2432 14.44685244504362 TechnoSat 1 42829U 17042E 26165.25725383 .00003971 00000-0 28337-3 0 9990 2 42829 97.4270 323.0265 0018800 103.4060 256.9264 15.04941924486267 AO-91 1 43017U 17073E 26165.16518689 .00008607 00000-0 37613-3 0 9991 2 43017 97.4711 32.4423 0150020 339.7577 19.7744 15.12676252464938 S-Net D 1 43186U 18014G 26165.29502880 .00005089 00000-0 26336-3 0 9995 2 43186 97.5371 70.1040 0009213 39.1918 320.9980 15.16648458458325 S-Net B 1 43187U 18014H 26165.30642462 .00004644 00000-0 24079-3 0 9997 2 43187 97.5379 70.1021 0009726 34.4282 325.7579 15.16618848458321 S-Net A 1 43188U 18014J 26165.22794561 .00005201 00000-0 26897-3 0 9997 2 43188 97.5388 70.2319 0009609 35.3723 324.8145 15.16655783458310 S-Net C 1 43189U 18014K 26165.24430765 .00004633 00000-0 24025-3 0 9992 2 43189 97.5403 70.3226 0010783 27.3893 332.7906 15.16610423456864 Ten-Koh 1 43677U 18084G 26165.26085641 .00002107 00000-0 16167-3 0 9994 2 43677 98.0774 357.5013 0011296 122.7548 237.4766 15.02933373415726 PO-101 1 43678U 18084H 26165.23560101 .00002442 00000-0 19907-3 0 9998 2 43678 98.1178 1.3158 0012341 179.7166 180.4066 15.00439453415773 QO-100 1 43700U 18090A 26165.19473333 .00000153 00000-0 00000-0 0 9994 2 43700 0.0008 357.8194 0001514 125.2169 235.3627 1.00269087 27648 MinXSS-2 1 43758U 18099A 26165.05127242 .00034951 00000-0 69858-3 0 9998 2 43758 97.4547 241.2439 0006447 268.3563 91.6948 15.46704865413645 AO-95 1 43770U 18099N 26165.12822934 .00011968 00000-0 45845-3 0 9993 2 43770 97.4390 225.3853 0008298 9.0334 351.1052 15.26654463412757 SNUSat 2 1 43782U 18099AA 26165.11141786 .00008628 00000-0 38269-3 0 9995 2 43782 97.4062 218.5423 0008763 311.0758 48.9720 15.21797709412564 SnugLite 1 43784U 18099AC 26165.12959470 .00011763 00000-0 44475-3 0 9995 2 43784 97.3877 219.4395 0001292 317.8162 42.2978 15.27120086412858 ITASat 1 1 43786U 18099AE 26165.12326008 .00006642 00000-0 31978-3 0 9996 2 43786 97.4033 216.6958 0012428 11.1997 348.9512 15.19023460412446 EAGLET 1 1 43790U 18099AJ 26165.07657307 .00004593 00000-0 26402-3 0 9993 2 43790 97.4235 214.8274 0010996 5.3059 354.8287 15.12919971411862 ESEO 1 43792U 18099AL 26164.85430318 .00002196 00000-0 16198-3 0 9999 2 43792 97.3970 202.3849 0011681 351.0456 9.0560 15.04235786411301 JO-97 1 43803U 18099AX 26165.15960116 .00016674 00000-0 51563-3 0 9991 2 43803 97.4134 227.9830 0004214 277.2169 82.8595 15.33568110413169 Suomi 100 1 43804U 18099AY 26165.12913964 .00012822 00000-0 46634-3 0 9992 2 43804 97.4196 225.5335 0008364 292.2364 67.7988 15.28353020412956 ISAT 1 43879U 18111D 26165.28503229 .00092545 00000-0 94288-3 0 9993 2 43879 97.5885 100.2842 0000832 88.1423 271.9931 15.64819747410718 UWE-4 1 43880U 18111E 26165.30258735 .00032250 00000-0 66149-3 0 9999 2 43880 97.5859 93.5612 0006031 355.2213 4.8977 15.45969448410336 Sparrow 1 43881U 18111F 26165.07954081 .00158918 00000-0 11201-2 0 9999 2 43881 97.6123 105.6259 0004435 108.6356 251.5389 15.73596164410888 Prox-1 1 44339U 19036A 26165.24564168 .00013018 00000-0 12702-2 0 9995 2 44339 23.9929 133.9015 0005534 2.9449 357.1083 14.90548290373031 Taurus 1 1 44530U 19059C 26165.32000660 .00004699 00000-0 75574-3 0 9996 2 44530 98.6403 329.9700 0007565 326.5447 33.5280 14.72068173358222 TO-108 1 44881U 19093C 26165.28493229 .00001044 00000-0 12383-3 0 9995 2 44881 97.7536 237.5873 0015036 95.7186 264.5744 14.86515020350989 RS-44 1 44909U 19096E 26165.19066042 .00000023 00000-0 42004-4 0 9998 2 44909 82.5218 341.6965 0218056 151.1526 210.1839 12.79748810301961 SALSAT 1 46495U 20068K 26165.00581426 .00008178 00000-0 28632-3 0 9998 2 46495 97.8843 167.8766 0008281 321.5879 38.4769 15.29759103314876 CSS (TIANHE-1) 1 48274U 21035A 26165.16154444 .00024349 00000-0 28784-3 0 9999 2 48274 41.4696 340.4133 0007701 52.5906 307.5633 15.60689990292695 CUTE 1 49263U 21088D 26165.23475129 .00155482 11148-4 46383-3 0 9997 2 49263 97.4170 264.2458 0007676 233.0428 127.0144 15.92383834262086 TeikyoSat 4 1 49396U 21102B 26165.07136645 .00001647 00000-0 10651-3 0 9993 2 49396 97.3671 194.6760 0010669 308.9733 51.0546 15.09499305252256 Z-Sat 1 49399U 21102E 26165.29806899 .00004763 00000-0 23520-3 0 9996 2 49399 97.3329 200.7082 0014902 256.3696 103.5879 15.18246968253004 KOSEN 1 1 49402U 21102H 26165.06135301 .00008131 00000-0 31069-3 0 9999 2 49402 97.3188 207.2792 0012865 212.0017 148.0442 15.26797048253542 HO-113 1 50466U 21131B 26165.27784161 .00000541 00000-0 18072-3 0 9996 2 50466 98.4982 257.6830 0005336 103.2580 256.9204 14.41355242234693 SNUGLITE 2 1 52899U 22065F 26165.16116136 .00000849 00000-0 16989-3 0 9990 2 52899 98.2197 309.9971 0008191 41.6961 318.4865 14.64342706210550 UmKA 1 (RS40S) 1 57172U 23091G 26165.19886139 .00006176 00000-0 28271-3 0 9995 2 57172 97.5056 223.9073 0014132 126.9272 233.3260 15.20787062163559 CubeBel-2 (EU11S) 1 57175U 23091K 26165.23907900 .00013032 00000-0 46308-3 0 9993 2 57175 97.5059 228.4293 0011254 123.4766 236.7551 15.29087977163851 RS-38S 1 57189U 23091Z 26165.28115683 .00017425 00000-0 49928-3 0 9993 2 57189 97.5100 234.7078 0008434 86.2910 273.9298 15.35944470164249 SONATE-2 1 59112U 24043Q 26164.99241653 .00038437 00000-0 50299-3 0 9992 2 59112 97.5521 315.1932 0006915 205.9654 154.1256 15.58498683127398 GRBBeta 1 60237U 24128C 26164.90161066 .00003495 00000-0 24477-3 0 9991 2 60237 61.9894 227.7936 0041064 133.9799 226.4693 15.06620638105778 Curium One 1 60242U 24128H 26165.26121309 .00006270 00000-0 36427-3 0 9995 2 60242 61.9774 216.1380 0040162 130.0831 230.3797 15.12480185106014 ROBUSTA-3A 1 60243U 24128J 26165.29050367 .00006233 00000-0 37012-3 0 9994 2 60243 61.9856 218.4883 0041668 127.6006 232.8884 15.11650187105986 CatSat 1 60246U 24125J 26165.12197483 .00068888 00000-0 89376-3 0 9991 2 60246 97.2084 17.5841 0022226 190.2009 169.8800 15.58321660106917 HYPERVIEW-1G (RS66S) 1 61772U 24199AP 26165.26794521 .00136151 00000-0 90107-3 0 9991 2 61772 97.2882 44.8415 0003087 234.0403 126.0576 15.75138405134218 AO-123 1 61781U 24199AY 26165.29791694 .00007519 00000-0 21879-3 0 9997 2 61781 97.3006 33.9954 0012534 325.5504 34.4926 15.35639171133480 JINJUSat 1B 1 63210U 25052A 26164.94849117 .00016991 00000-0 52780-3 0 9999 2 63210 97.4011 61.6997 0005499 98.3498 261.8367 15.33412525 69607 NUSHSAT 1 1 63211U 25052B 26165.25797554 .00020851 00000-0 59847-3 0 9993 2 63211 97.3993 62.5650 0005210 100.2597 259.9234 15.35871806 69699 TEVEL2-4 1 63213U 25052D 26165.24787499 .00018966 00000-0 56859-3 0 9995 2 63213 97.3916 61.6351 0004817 109.6731 250.5032 15.34521114 69662 TEVEL2-5 1 63214U 25052E 26165.13761332 .00019767 00000-0 59574-3 0 9999 2 63214 97.3913 61.4736 0004713 110.5987 249.5761 15.34345297 69645 TEVEL2-6 1 63215U 25052F 26165.28031027 .00018628 00000-0 56220-3 0 9997 2 63215 97.3919 61.6008 0004644 110.4903 249.6839 15.34313968 69665 TEVEL2-1 1 63217U 25052H 26165.24308869 .00018167 00000-0 55762-3 0 9994 2 63217 97.3887 61.1915 0004629 119.5587 240.6117 15.33782772 69644 TEVEL2-3 1 63218U 25052J 26165.23783726 .00017827 00000-0 54634-3 0 9992 2 63218 97.3893 61.2078 0004602 119.3991 240.7711 15.33837086 69641 TEVEL2-2 1 63219U 25052K 26165.24341888 .00018234 00000-0 55953-3 0 9991 2 63219 97.3886 61.1944 0004639 119.8563 240.3141 15.33790939 69643 TEVEL2-9 1 63237U 25052AD 26165.28236824 .00016318 00000-0 53265-3 0 9993 2 63237 97.3950 60.6144 0007557 138.8374 221.3439 15.31820596 69587 TEVEL2-7 1 63238U 25052AE 26165.25738366 .00015403 00000-0 50763-3 0 9993 2 63238 97.3957 60.5072 0007596 139.3804 220.8005 15.31524555 69579 TEVEL2-8 1 63239U 25052AF 26165.20026774 .00015772 00000-0 51998-3 0 9992 2 63239 97.3953 60.4271 0007655 140.3023 219.8780 15.31507212 69565 SPIRONE 1 66657U 25274H 26165.30712011 .00001699 00000-0 16643-3 0 9993 2 66657 97.7485 94.6397 0012952 30.8625 329.3354 14.93536494 29797 K-HERO 1 66660U 25274L 26165.24554056 .00001434 00000-0 13983-3 0 9994 2 66660 97.7492 94.7378 0014908 34.0561 326.1612 14.93953339 29790 SNUGLITE-III DURI 1 66661U 25274M 26164.76456643 .00001872 00000-0 18067-3 0 9998 2 66661 97.7488 94.2836 0015577 36.3265 323.9009 14.93992527 29729 SAKHACUBE-CHOLBON 1 67290U 25313AU 26164.94480660 .00010023 00000-0 40586-3 0 9996 2 67290 97.3940 240.0197 0009187 17.0300 343.1245 15.24836520 25484 RS95S (QMR-KWT-2) 1 67291U 25313AV 26165.19828612 .00013462 00000-0 52185-3 0 9996 2 67291 97.3939 240.4393 0008515 14.4843 345.6637 15.26226057 25530 Ten-Koh2 1 68261U 25241B 26164.73680357 .00006404 00000-0 27529-3 0 9997 2 68261 51.6690 336.0488 0006153 131.9558 228.1945 15.23867079 14386 JACK-002 1 68417U 26067B 26164.86852132 .00006607 00000-0 31564-3 0 9992 2 68417 97.4564 123.5001 0000597 11.9931 348.1318 15.19358285 11445 DISCO 2 1 68431U 26067R 26165.28422443 .00007832 00000-0 37699-3 0 9999 2 68431 97.4600 123.8994 0003103 48.6591 311.4910 15.19034344 11506 HADES-SA (SpinnyONE) 1 68446U 26067AG 26165.12573244 .00018327 00000-0 87744-3 0 9991 2 68446 97.4396 123.4675 0009588 89.7166 270.5168 15.18966575 11467 PARUS-6U1 1 68456U 26067AS 26165.15521757 .00006243 00000-0 31466-3 0 9991 2 68456 97.4549 123.5653 0007566 79.6321 280.5765 15.17489093 11479 SAL-E 1 68458U 26067AU 26165.15112065 .00008193 00000-0 40906-3 0 9996 2 68458 97.4473 123.4992 0008000 86.9612 273.2537 15.17718803 11470 FSI-SAT 2 1 68792U 26088A 26164.96543333 .00005332 00000-0 36100-3 0 9997 2 68792 97.5053 314.3055 0015582 116.8310 243.4514 15.06811321 7801 OrigamiSat 2 1 68795U 26088D 26163.91742595 .00003406 00000-0 22097-3 0 9995 2 68795 97.5058 313.4073 0016628 95.5779 264.7346 15.08635651 7657 ARICA 2 1 68796U 26088E 26164.91095685 .00004643 00000-0 30156-3 0 9997 2 68796 97.5047 314.3708 0017016 90.6025 269.7153 15.08402131 7806 WASEDA-SAT-ZERO-II 1 68797U 26088F 26164.90713154 .00006853 00000-0 44064-3 0 9993 2 68797 97.5042 314.3746 0016779 90.6682 269.6470 15.08607256 7804 MANGARO-II-Piscus 1 68798U 26088G 26165.29583475 .00004510 00000-0 28973-3 0 9997 2 68798 97.5060 314.7827 0020437 91.7270 268.6300 15.08766119 7861 IO-86 1 40931U 25360.30710720 .00000000 00000-0 12800-3 0 00 2 40931 6.0006 332.5373 0012733 338.8432 8.1437 14.79075515 01 LILIUM-4 1 71922C 26067AC 26089.50133053 -.00014632 00000 0 -74472-3 0 04 2 71922 97.4497 49.1617 0004341 5.9603 355.7042 15.16896692 16